NUSAT-3 (MILANESAT) (42760 NORAD) Tracking and Keplerian Element Data

This shows tracking and keplerian element data for the satellite.

Feedback or suggestion? Click here.




ElementValue
Catalog42760
NameNUSAT-3 (MILANESAT)
Epoch Orbit40567
Epoch Day286.85903835
Epoch Year2024
RAAN260.0172
Inclination43.0056
Eccentricity0.001462
Argument of Perigee93.8056
Mean Anonmoly266.4472
Mean Motion15.39928796
Decay Rate0.00057791
L11 42760U 17034C 24286.85903835 .00057791 00000+0 14110-2 0 9994
L22 42760 43.0056 260.0172 0014620 93.8056 266.4472 15.39928796405673



Live tracking and technical data element details for NUSAT-3 (MILANESAT) (NORAD 42760). NUSAT-3 (MILANESAT) can be tracked NOW for your location showing map with azimuth and elevation plus other details from your city location.







IsCatalogInMostPopularTable: catalog: 42760, numindb: 611
Update: records affected: 1



GetName: 42760 NUSAT-3 (MILANESAT)

Hit Count: updated at: Wed, 04 Dec 2024 13:26:06 GMT